Weather in Kortrijk

Belgium     50°49′25″N   3°15′32″E
temp.,
°C
wind,
m/s
gust,
m/s
humid.,
%
clouds,
%
prec.,
mm/h
press.,
hPa
HPBL,
m
10 april, sat
sat1023:00+9e2467100 0.1 1012208
02:00+8se2384100 0.8 1012146
05:00+7nnw1183100 0.0 101245
08:00+7ne1285100 0.0 1013105
11:00+7ese2380100 0.4 1013400
14:00+7ene4694100 3.0 1011867
17:00+6ene4593100 6.1 1010742
20:00+5ne4693100 7.0 1009649
11 april, sun
sun1123:00+4nne4896100 0.3 1010525
02:00+4nne5797100 1.8 1010657
05:00+3nne41097100 3.2 1011497
08:00+2nne61396100 4.1 1012582
11:00+4nne61087100 0.1 1014969
14:00+6nne5966100 0.2 10151488
17:00+8n784450 0.0 10171821
20:00+6n58585 0.0 10191151
12 april, mon
mon1223:00+3n38674 0.0 1022442
02:00+2nnw25695 0.0 1024155
05:00+1nw23725 0.0 102566
08:00+2wnw12725 0.0 102683
11:00+6nw235914 0.1 10271135
14:00+8nnw345589 1.3 10281602
17:00+8nnw454697 0.4 10281756
20:00+6nnw23475 0.4 1029622
13 april, tue
tue1323:00+4nne1254100 0.0 103053
02:00+3ssw1266100 0.2 1031187
05:00+2se1384100 0.5 1031274
08:00+2nne238021 0.6 1032130
11:00+6nne235617 0.0 10331153
14:00+9n2338100 0.2 10322133
17:00+10n533681 0.0 10311945
20:00+7n455843 0.0 1032827
14 april, wed
wed1423:00+4nne257566 0.0 1033186
02:00+3nne12791 0.0 103353
05:00+2n11802 0.0 103326
08:00+2n117833 0.0 103357
11:00+7n135549 0.0 1033823
14:00+9nnw3453100 0.5 10321419
17:00+9n46534 1.1 10311699
20:00+7n46635 1.2 1031754